Weather History for KPCM - January, 2013

Change the Weather History Date:

Saturday, January 19, 2013

  Actual Average Record
Temperature  
Mean Temperature 66 °F -  
Max Temperature 77 °F 73 °F 85 °F (1937)
Min Temperature 55 °F 50 °F 25 °F (1976)
Cooling Degree Days 1    
Growing Degree Days 16 (Base 50)    
Moisture  
Dew Point 54 °F    
Average Humidity 69    
Maximum Humidity 83    
Minimum Humidity 50    
Precipitation  
Precipitation 0.00 in - - ()
Sea Level Pressure  
Sea Level Pressure 30.23 in    
Wind  
Wind Speed 7 mph (NE)    
Max Wind Speed 15 mph    
Max Gust Speed 22 mph    
Visibility 10 miles    
Events      
Averages and records for this station are not official NWS values.
T = Trace of Precipitation, MM = Missing Value Source: NWS Daily Summary

Daily Weather History Graph

Daily Weather History Graph

Search for Another Location

Airport or City:

Trip Planner

Search our weather history database for the weather conditions in past years. The results will help you decide how hot, cold, wet, or windy it might be!

Date:

Astronomy

Jan. 19, 2013 Rise Set
Actual Time 7:20 AM EST 5:58 PM EST
Civil Twilight 6:55 AM EST 6:23 PM EST
Nautical Twilight 6:26 AM EST 6:52 PM EST
Astronomical Twilight 5:58 AM EST 7:20 PM EST
Moon 12:18 PM EST (1/19) 1:01 AM EST (1/19)
Length of Visible Light 11h 28m
Length of Day
10h 38m
First Quarter, 57% of the Moon is Illuminated
Jan 19
First Quarter
Jan 26
Full
Feb 3
Last Quarter
Feb 10
New
Feb 17
First Quarter

Hourly Weather History & Observations

Time (EST) Temp. Dew Point Humidity Pressure Visibility Wind Dir Wind Speed Gust Speed Precip Events Conditions
12:15 AM 55.4 °F 48.2 °F 77% 30.29 in 10.0 mi North 6.9 mph - N/A   Mostly Cloudy
12:35 AM 55.4 °F 48.2 °F 77% 30.28 in 10.0 mi North 4.6 mph - N/A   Scattered Clouds
12:55 AM 55.4 °F 48.2 °F 77% 30.28 in 10.0 mi North 5.8 mph - N/A   Mostly Cloudy
1:15 AM 55.4 °F 48.2 °F 77% 30.28 in 10.0 mi NNE 6.9 mph - N/A   Overcast
1:35 AM 55.4 °F 48.2 °F 77% 30.27 in 10.0 mi North 9.2 mph - N/A   Overcast
1:55 AM 55.4 °F 48.2 °F 77% 30.27 in 10.0 mi North 6.9 mph - N/A   Overcast
2:15 AM 55.4 °F 48.2 °F 77% 30.27 in 10.0 mi NNE 8.1 mph - N/A   Overcast
2:35 AM 55.4 °F 48.2 °F 77% 30.26 in 10.0 mi NNE 6.9 mph - N/A   Overcast
2:55 AM 55.4 °F 48.2 °F 77% 30.26 in 10.0 mi NNE 6.9 mph - N/A   Overcast
3:15 AM 55.4 °F 48.2 °F 77% 30.26 in 10.0 mi NNE 8.1 mph - N/A   Overcast
3:35 AM 55.4 °F 48.2 °F 77% 30.26 in 10.0 mi NNE 6.9 mph - N/A   Overcast
3:55 AM 55.4 °F 48.2 °F 77% 30.26 in 10.0 mi NNE 6.9 mph - N/A   Overcast
4:15 AM 55.4 °F 48.2 °F 77% 30.26 in 10.0 mi North 8.1 mph - N/A   Overcast
4:35 AM 55.4 °F 50.0 °F 82% 30.26 in 10.0 mi NNE 6.9 mph - N/A   Overcast
4:55 AM 55.4 °F 50.0 °F 82% 30.26 in 10.0 mi NNE 5.8 mph - N/A   Overcast
5:15 AM 55.4 °F 50.0 °F 82% 30.26 in 10.0 mi North 5.8 mph - N/A   Overcast
5:35 AM 55.4 °F 50.0 °F 82% 30.26 in 10.0 mi North 5.8 mph - N/A   Overcast
5:55 AM 55.4 °F 50.0 °F 82% 30.27 in 10.0 mi NNE 5.8 mph - N/A   Overcast
6:15 AM 55.4 °F 50.0 °F 82% 30.27 in 10.0 mi NNE 4.6 mph - N/A   Overcast
6:35 AM 55.4 °F 50.0 °F 82% 30.27 in 10.0 mi NNE 4.6 mph - N/A   Overcast
6:55 AM 55.4 °F 50.0 °F 82% 30.28 in 10.0 mi North 3.5 mph - N/A   Overcast
8:15 AM 57.2 °F 51.8 °F 82% 30.29 in 10.0 mi NNE 5.8 mph - N/A   Overcast
8:55 AM 59.0 °F 51.8 °F 77% 30.30 in 10.0 mi NNE 9.2 mph - N/A   Mostly Cloudy
9:15 AM 60.8 °F 51.8 °F 72% 30.30 in 10.0 mi NNE 9.2 mph - N/A   Scattered Clouds
9:35 AM 64.4 °F 53.6 °F 68% 30.30 in 10.0 mi NE 6.9 mph - N/A   Scattered Clouds
10:55 AM 71.6 °F 55.4 °F 57% 30.30 in 10.0 mi East 9.2 mph 17.3 mph N/A   Clear
11:15 AM 71.6 °F 55.4 °F 57% 30.30 in 10.0 mi ENE 11.5 mph 20.7 mph N/A   Scattered Clouds
11:35 AM 71.6 °F 55.4 °F 57% 30.29 in 10.0 mi ENE 10.4 mph 21.9 mph N/A   Mostly Cloudy
12:15 PM 73.4 °F 57.2 °F 57% 30.26 in 10.0 mi ENE 12.7 mph 18.4 mph N/A   Mostly Cloudy
12:35 PM 75.2 °F 57.2 °F 53% 30.24 in 10.0 mi ENE 13.8 mph 18.4 mph N/A   Mostly Cloudy
12:55 PM 75.2 °F 55.4 °F 50% 30.22 in 10.0 mi NE 12.7 mph 18.4 mph N/A   Mostly Cloudy
1:15 PM 75.2 °F 57.2 °F 53% 30.21 in 10.0 mi NE 11.5 mph - N/A   Mostly Cloudy
1:35 PM 75.2 °F 57.2 °F 53% 30.20 in 10.0 mi ENE 15.0 mph 19.6 mph N/A   Overcast
1:55 PM 75.2 °F 57.2 °F 53% 30.19 in 10.0 mi ENE 11.5 mph - N/A   Overcast
2:15 PM 75.2 °F 57.2 °F 53% 30.18 in 10.0 mi East 10.4 mph - N/A   Overcast
2:35 PM 75.2 °F 57.2 °F 53% 30.17 in 10.0 mi ENE 10.4 mph - N/A   Mostly Cloudy
2:55 PM 77.0 °F 57.2 °F 50% 30.17 in 10.0 mi NE 11.5 mph - N/A   Mostly Cloudy
3:15 PM 75.2 °F 57.2 °F 53% 30.16 in 10.0 mi NE 11.5 mph - N/A   Mostly Cloudy
3:35 PM 75.2 °F 57.2 °F 53% 30.16 in 10.0 mi ENE 9.2 mph - N/A   Overcast
3:55 PM 73.4 °F 57.2 °F 57% 30.16 in 10.0 mi NE 10.4 mph 16.1 mph N/A   Overcast
4:15 PM 73.4 °F 57.2 °F 57% 30.17 in 10.0 mi NE 10.4 mph - N/A   Overcast
4:35 PM 73.4 °F 57.2 °F 57% 30.17 in 10.0 mi ENE 9.2 mph - N/A   Overcast
4:55 PM 73.4 °F 57.2 °F 57% 30.17 in 10.0 mi ENE 9.2 mph - N/A   Overcast
5:15 PM 73.4 °F 57.2 °F 57% 30.17 in 10.0 mi ENE 6.9 mph - N/A   Overcast
5:35 PM 73.4 °F 57.2 °F 57% 30.18 in 10.0 mi NE 6.9 mph - N/A   Overcast
5:55 PM 71.6 °F 57.2 °F 60% 30.18 in 10.0 mi NE 6.9 mph - N/A   Overcast
6:15 PM 71.6 °F 57.2 °F 60% 30.18 in 10.0 mi NE 5.8 mph - N/A   Overcast
6:35 PM 71.6 °F 57.2 °F 60% 30.19 in 10.0 mi NE 5.8 mph - N/A   Overcast
6:55 PM 71.6 °F 57.2 °F 60% 30.19 in 10.0 mi NE 4.6 mph - N/A   Overcast
7:15 PM 69.8 °F 59.0 °F 68% 30.20 in 10.0 mi NE 5.8 mph - N/A   Overcast
7:35 PM 69.8 °F 59.0 °F 68% 30.20 in 10.0 mi NE 6.9 mph - N/A   Overcast
7:55 PM 69.8 °F 59.0 °F 68% 30.21 in 10.0 mi ENE 5.8 mph - N/A   Overcast
8:15 PM 69.8 °F 59.0 °F 68% 30.21 in 10.0 mi ENE 6.9 mph - N/A   Overcast
8:35 PM 69.8 °F 59.0 °F 68% 30.20 in 10.0 mi ENE 8.1 mph - N/A   Overcast
8:55 PM 69.8 °F 59.0 °F 68% 30.20 in 10.0 mi ENE 6.9 mph - N/A   Overcast
9:15 PM 68.0 °F 59.0 °F 73% 30.20 in 10.0 mi ENE 5.8 mph - N/A   Overcast
9:35 PM 68.0 °F 59.0 °F 73% 30.20 in 10.0 mi NE 3.5 mph - N/A   Mostly Cloudy
9:55 PM 66.2 °F 59.0 °F 78% 30.19 in 10.0 mi NE 3.5 mph - N/A   Scattered Clouds
10:15 PM 66.2 °F 59.0 °F 78% 30.19 in 10.0 mi NNE 4.6 mph - N/A   Clear
10:35 PM 64.4 °F 59.0 °F 83% 30.19 in 10.0 mi NE 3.5 mph - N/A   Clear
10:55 PM 64.4 °F 59.0 °F 83% 30.19 in 10.0 mi NNE 3.5 mph - N/A   Scattered Clouds
11:15 PM 64.4 °F 59.0 °F 83% 30.19 in 10.0 mi NNE 6.9 mph - N/A   Overcast
11:35 PM 64.4 °F 59.0 °F 83% 30.18 in 10.0 mi NNE 5.8 mph - N/A   Overcast
11:55 PM 64.4 °F 59.0 °F 83% 30.19 in 10.0 mi NNE 5.8 mph - N/A   Overcast